Weather History for Wayne, NE

Change the Weather History Date:

Tuesday, July 16, 2013

  Actual Average (KOFK) Record (KOFK)
Temperature  
Mean Temperature 75 °F 75 °F  
Max Temperature 87 °F 87 °F 112 °F (1936)
Min Temperature 63 °F 64 °F 47 °F (2014)
Degree Days  
Heating Degree Days 0 0  
Month to date heating degree days 0  
Since 1 June heating degree days 30  
Since 1 July heating degree days 0  
Cooling Degree Days 10 10  
Month to date cooling degree days 158  
Year to date cooling degree days 405  
Since 1 June cooling degree days 344  
Growing Degree Days 25 (Base 50)    
Moisture  
Dew Point 65 °F    
Average Humidity 73    
Maximum Humidity 100    
Minimum Humidity 40    
Precipitation  
Precipitation 0.00 in 0.10 in 1.22 in (1900)
Month to date precipitation 1.78  
Year to date precipitation 15.74  
Snow  
Snow 0.00 in 0.00 in - ()
Month to date snowfall 0.0  
Since 1 July snowfall 0.0  
Snow Depth -    
Sea Level Pressure  
Sea Level Pressure 30.23 in    
Wind  
Wind Speed 7 mph (South)    
Max Wind Speed 16 mph    
Max Gust Speed 22 mph    
Visibility 8 miles    
Events      
T = Trace of Precipitation, MM = Missing Value Source: NWS Daily Summary

Daily Weather History Graph

Daily Weather History Graph

Search for Another Location

Airport:

Trip Planner

Search our weather history database for the weather conditions in past years. The results will help you decide how hot, cold, wet, or windy it might be!

Date:

Astronomy

Jul. 16, 2013 Rise Set
Actual Time 6:05 AM CDT 9:01 PM CDT
Civil Twilight 5:32 AM CDT 9:34 PM CDT
Nautical Twilight 4:50 AM CDT 10:17 PM CDT
Astronomical Twilight 4:00 AM CDT 11:06 PM CDT
Moon 2:42 PM CDT (7/16) 12:39 AM CDT (7/16)
Length of Visible Light 16h 02m
Length of Day
14h 55m
First Quarter, 56% of the Moon is Illuminated
Jul 16
First Quarter
Jul 22
Full
Jul 29
Last Quarter
Aug 6
New
Aug 14
First Quarter

Hourly Weather History & Observations

Time (CDT) Temp. Heat Index Dew Point Humidity Pressure Visibility Wind Dir Wind Speed Gust Speed Precip Events Conditions
12:15 AM 70.3 °F - 68.2 °F 93% 30.18 in 7.0 mi SSE 4.6 mph - N/A   Clear
12:35 AM 69.8 °F - 68.0 °F 94% 30.18 in 7.0 mi SSE 5.8 mph - N/A   Clear
12:55 AM 70.3 °F - 68.0 °F 92% 30.18 in 7.0 mi SSE 6.9 mph - N/A   Clear
1:15 AM 69.4 °F - 67.6 °F 94% 30.17 in 7.0 mi South 6.9 mph - N/A   Clear
1:35 AM 69.3 °F - 67.5 °F 94% 30.18 in 7.0 mi South 5.8 mph - N/A   Clear
1:55 AM 68.7 °F - 67.5 °F 96% 30.18 in 7.0 mi South 6.9 mph - N/A   Clear
2:15 AM 69.3 °F - 67.5 °F 94% 30.18 in 7.0 mi South 6.9 mph - N/A   Clear
2:35 AM 68.9 °F - 67.3 °F 95% 30.18 in 7.0 mi South 5.8 mph - N/A   Clear
2:55 AM 68.0 °F - 66.9 °F 96% 30.19 in 7.0 mi Calm Calm - N/A   Clear
3:15 AM 68.0 °F - 67.1 °F 97% 30.19 in 7.0 mi Calm Calm - N/A   Clear
3:35 AM 67.3 °F - 66.6 °F 98% 30.18 in 7.0 mi SSW 3.5 mph - N/A   Clear
3:55 AM 66.7 °F - 66.4 °F 99% 30.18 in 5.0 mi South 5.8 mph - N/A   Clear
4:15 AM 65.8 °F - 65.7 °F 99% 30.18 in 5.0 mi SSW 3.5 mph - N/A   Clear
4:35 AM 65.3 °F - 65.3 °F 100% 30.19 in 5.0 mi Calm Calm - N/A   Clear
4:55 AM 65.3 °F - 65.3 °F 100% 30.19 in 5.0 mi Calm Calm - N/A   Clear
5:15 AM 64.4 °F - 64.4 °F 100% 30.19 in 5.0 mi Calm Calm - N/A   Clear
5:35 AM 64.0 °F - 64.0 °F 100% 30.19 in 5.0 mi South 4.6 mph - N/A   Clear
5:55 AM 64.6 °F - 64.6 °F 100% 30.19 in 4.0 mi South 4.6 mph - N/A   Clear
6:15 AM 63.5 °F - 63.5 °F 100% 30.20 in 4.0 mi South 3.5 mph - N/A   Clear
6:35 AM 64.4 °F - 64.4 °F 100% 30.20 in 5.0 mi Calm Calm - N/A   Clear
6:55 AM 65.1 °F - 64.8 °F 99% 30.21 in 4.0 mi South 4.6 mph - N/A   Clear
7:15 AM 66.9 °F - 66.2 °F 98% 30.22 in 5.0 mi South 4.6 mph - N/A   Clear
7:35 AM 68.0 °F - 66.6 °F 95% 30.23 in 5.0 mi Calm Calm - N/A   Clear
7:55 AM 69.4 °F - 67.3 °F 93% 30.24 in 7.0 mi South 3.5 mph - N/A   Clear
8:15 AM 71.6 °F - 67.6 °F 87% 30.24 in 10.0 mi South 8.1 mph - N/A   Clear
8:35 AM 72.7 °F - 67.1 °F 83% 30.25 in 10.0 mi South 8.1 mph - N/A   Clear
8:55 AM 73.6 °F - 65.7 °F 76% 30.25 in 10.0 mi SSW 8.1 mph - N/A   Clear
9:15 AM 74.3 °F - 65.3 °F 73% 30.25 in 10.0 mi SSW 8.1 mph - N/A   Clear
9:35 AM 75.6 °F - 64.9 °F 69% 30.25 in 10.0 mi SSW 8.1 mph - N/A   Clear
9:55 AM 76.3 °F - 65.1 °F 68% 30.26 in 10.0 mi SSW 6.9 mph - N/A   Clear
10:15 AM 77.4 °F - 64.8 °F 65% 30.26 in 10.0 mi SSW 9.2 mph - N/A   Clear
10:55 AM 79.7 °F - 64.2 °F 59% 30.26 in 10.0 mi South 12.7 mph - N/A   Clear
11:15 AM 80.2 °F 81.4 °F 62.1 °F 54% 30.26 in 10.0 mi SSW 12.7 mph - N/A   Clear
11:35 AM 80.6 °F 81.9 °F 63.3 °F 55% 30.27 in 10.0 mi South 10.4 mph - N/A   Clear
11:55 AM 81.5 °F 82.7 °F 63.0 °F 53% 30.27 in 10.0 mi SSW 10.4 mph 17.3 mph N/A   Clear
12:15 PM 82.2 °F 82.7 °F 61.0 °F 48% 30.27 in 10.0 mi SSW 15.0 mph 19.6 mph N/A   Clear
12:35 PM 83.5 °F 84.5 °F 63.0 °F 50% 30.26 in 10.0 mi South 13.8 mph 17.3 mph N/A   Clear
12:55 PM 84.0 °F 84.7 °F 62.4 °F 48% 30.26 in 10.0 mi South 13.8 mph - N/A   Clear
1:15 PM 84.4 °F 85.2 °F 62.6 °F 48% 30.25 in 10.0 mi South 11.5 mph 18.4 mph N/A   Clear
1:35 PM 84.7 °F 84.8 °F 60.8 °F 44% 30.25 in 10.0 mi SSW 12.7 mph - N/A   Clear
1:55 PM 85.5 °F 85.4 °F 60.6 °F 43% 30.25 in 10.0 mi SSW 15.0 mph - N/A   Clear
2:15 PM 85.3 °F 85.4 °F 61.0 °F 44% 30.25 in 10.0 mi South 16.1 mph 20.7 mph N/A   Clear
2:35 PM 86.0 °F 86.3 °F 61.9 °F 44% 30.24 in 10.0 mi South 11.5 mph - N/A   Clear
3:55 PM 87.1 °F 86.7 °F 60.3 °F 40% 30.24 in 7.0 mi SW 12.7 mph 21.9 mph N/A   Clear
4:15 PM 87.3 °F 87.2 °F 60.8 °F 41% 30.24 in 10.0 mi South 16.1 mph - N/A   Clear
4:35 PM 86.7 °F 87.0 °F 61.5 °F 43% 30.24 in 10.0 mi SSW 16.1 mph - N/A   Scattered Clouds
4:55 PM 86.4 °F 86.8 °F 62.2 °F 44% 30.24 in 10.0 mi South 12.7 mph - N/A   Scattered Clouds
5:15 PM 86.2 °F 86.6 °F 62.1 °F 44% 30.24 in 10.0 mi South 12.7 mph - N/A   Clear
5:35 PM 85.8 °F 86.6 °F 62.6 °F 46% 30.23 in 10.0 mi South 12.7 mph - N/A   Clear
5:55 PM 85.6 °F 86.8 °F 63.7 °F 48% 30.23 in 10.0 mi SSW 10.4 mph - N/A   Clear
6:15 PM 85.1 °F 86.4 °F 63.7 °F 49% 30.23 in 10.0 mi SSW 8.1 mph - N/A   Clear
6:35 PM 85.3 °F 86.4 °F 63.3 °F 48% 30.23 in 10.0 mi SSW 12.7 mph - N/A   Clear
6:55 PM 85.1 °F 86.4 °F 63.9 °F 49% 30.23 in 10.0 mi SSW 9.2 mph - N/A   Clear
7:15 PM 84.6 °F 85.9 °F 63.9 °F 50% 30.22 in 10.0 mi South 8.1 mph - N/A   Clear
7:35 PM 83.7 °F 84.7 °F 63.3 °F 50% 30.22 in 10.0 mi South 10.4 mph - N/A   Clear
7:55 PM 82.6 °F 84.1 °F 64.4 °F 54% 30.23 in 10.0 mi South 6.9 mph - N/A   Clear
8:15 PM 81.5 °F 83.1 °F 64.6 °F 56% 30.23 in 10.0 mi South 5.8 mph - N/A   Clear
8:35 PM 79.5 °F - 65.5 °F 62% 30.23 in 10.0 mi South 4.6 mph - N/A   Clear
8:55 PM 76.8 °F - 65.7 °F 68% 30.24 in 10.0 mi SSE 4.6 mph - N/A   Clear
9:15 PM 75.2 °F - 65.5 °F 72% 30.24 in 10.0 mi SSE 5.8 mph - N/A   Clear
9:35 PM 74.3 °F - 65.5 °F 74% 30.24 in 10.0 mi SSE 4.6 mph - N/A   Clear
9:55 PM 73.8 °F - 65.3 °F 75% 30.25 in 10.0 mi SSE 5.8 mph - N/A   Clear
10:15 PM 73.4 °F - 65.3 °F 76% 30.25 in 10.0 mi SSE 6.9 mph - N/A   Clear
10:35 PM 72.7 °F - 65.5 °F 78% 30.25 in 10.0 mi SSE 4.6 mph - N/A   Clear
10:55 PM 71.1 °F - 65.8 °F 84% 30.26 in 10.0 mi South 3.5 mph - N/A   Clear
11:15 PM 70.5 °F - 65.8 °F 85% 30.26 in 10.0 mi SSE 4.6 mph - N/A   Clear
11:35 PM 70.2 °F - 66.0 °F 87% 30.26 in 10.0 mi South 4.6 mph - N/A   Clear
11:55 PM 70.5 °F - 66.0 °F 86% 30.26 in 10.0 mi South 4.6 mph - N/A   Clear